This is the latest recevied weather packets stored in our database for station/object NK2J. If no packets are shown the sender has not sent any weather packets the latest 10 day(s).
| Time | Temp. | Humidity | Pressure | Rain* | Wind** | Luminosity | Snow |
|---|---|---|---|---|---|---|---|
| 1777470954 | 16.67° C | 26% | 1017.1 hPa | 0 mm | - | 77 W/m² | - |
| 1777470651 | 16.67° C | 25% | 1017 hPa | 0 mm | - | 67 W/m² | - |
| 1777470346 | 16.11° C | 26% | 1017 hPa | 0 mm | - | 65 W/m² | - |
| 1777470044 | 16.11° C | 27% | 1017.2 hPa | 0 mm | - | 61 W/m² | - |
| 1777469739 | 16.11° C | 25% | 1017 hPa | 0 mm | - | 54 W/m² | - |
| 1777469435 | 16.11° C | 25% | 1017 hPa | 0 mm | - | 43 W/m² | - |
| 1777469131 | 16.11° C | 26% | 1016.8 hPa | 0 mm | - | 42 W/m² | - |
| 1777468830 | 16.11° C | 25% | 1016.6 hPa | 0 mm | - | 37 W/m² | - |
| 1777468527 | 15.56° C | 25% | 1016.7 hPa | 0 mm | - | 29 W/m² | - |
| 1777468224 | 15.56° C | 26% | 1016.9 hPa | 0 mm | - | 24 W/m² | - |
| 1777467920 | 15.56° C | 26% | 1016.9 hPa | 0 mm | - | 17 W/m² | - |
| 1777467616 | 15.56° C | 26% | 1016.8 hPa | 0 mm | - | 11 W/m² | - |
| 1777467311 | 16.11° C | 25% | 1016.7 hPa | 0 mm | - | 6 W/m² | - |
| 1777467008 | 16.11° C | 25% | 1016.9 hPa | 0 mm | - | 4 W/m² | - |
| 1777466705 | 16.11° C | 25% | 1016.7 hPa | 0 mm | - | 3 W/m² | - |
| 1777466403 | 16.11° C | 26% | 1016.6 hPa | 0 mm | - | 2 W/m² | - |
| 1777466098 | 16.11° C | 25% | 1016.6 hPa | 0 mm | - | 1 W/m² | - |
| 1777465795 | 16.11° C | 25% | 1016.6 hPa | 0 mm | - | 0 W/m² | - |
| 1777465490 | 16.11° C | 26% | 1016.6 hPa | 0 mm | - | 0 W/m² | - |
| 1777465189 | 16.11° C | 25% | 1016.2 hPa | 0 mm | - | 0 W/m² | - |
| 1777464885 | 15.56° C | 25% | 1016.4 hPa | 0 mm | - | 0 W/m² | - |
| 1777464580 | 15.56° C | 26% | 1016.5 hPa | 0 mm | - | 0 W/m² | - |
| 1777464277 | 15.56° C | 25% | 1016.6 hPa | 0 mm | - | 0 W/m² | - |
| 1777463972 | 15.56° C | 25% | 1016.7 hPa | 0 mm | - | 0 W/m² | - |
| 1777463668 | 15.56° C | 25% | 1016.7 hPa | 0 mm | - | 0 W/m² | - |
* Rain latest hour (hover to see other rain measurements)
** Current wind speed in m/s (hover to see current wind gust speed)